TimeCST,TemperatureF,Dew PointF,Humidity,Sea Level PressureIn,VisibilityMPH,Wind Direction,Wind SpeedMPH,Gust SpeedMPH,PrecipitationIn,Events,Conditions,WindDirDegrees,DateUTC
12:51 AM,75.9,66.9,74,29.89,10.0,SSE,19.6,-,N/A,,Clear,160,2012-11-11 06:51:00
1:51 AM,75.9,66.9,74,29.88,10.0,SSE,15.0,-,N/A,,Clear,160,2012-11-11 07:51:00
2:51 AM,75.9,68.0,76,29.85,10.0,South,16.1,-,N/A,,Partly Cloudy,170,2012-11-11 08:51:00
3:51 AM,75.9,66.0,71,29.84,10.0,South,16.1,-,N/A,,Partly Cloudy,170,2012-11-11 09:51:00
4:51 AM,75.0,64.9,71,29.83,10.0,South,16.1,-,N/A,,Partly Cloudy,170,2012-11-11 10:51:00
5:51 AM,75.9,66.0,71,29.86,10.0,South,17.3,-,N/A,,Scattered Clouds,180,2012-11-11 11:51:00
6:51 AM,75.9,66.9,74,29.87,10.0,South,18.4,-,N/A,,Scattered Clouds,170,2012-11-11 12:51:00
7:51 AM,77.0,68.0,74,29.90,10.0,South,10.4,-,N/A,,Scattered Clouds,170,2012-11-11 13:51:00
8:51 AM,80.1,68.0,67,29.91,10.0,South,17.3,-,0.00,,Mostly Cloudy,180,2012-11-11 14:51:00
9:51 AM,82.0,66.9,60,29.92,10.0,South,25.3,34.5,N/A,,Mostly Cloudy,170,2012-11-11 15:51:00
10:51 AM,84.9,66.0,53,29.89,10.0,South,29.9,38.0,N/A,,Scattered Clouds,170,2012-11-11 16:51:00
11:51 AM,87.1,64.9,48,29.88,10.0,SSE,29.9,40.3,N/A,,Scattered Clouds,160,2012-11-11 17:51:00
12:51 PM,88.0,64.9,46,29.86,10.0,SSE,26.5,38.0,N/A,,Mostly Cloudy,160,2012-11-11 18:51:00
1:51 PM,88.0,66.0,48,29.84,10.0,SSE,24.2,35.7,N/A,,Mostly Cloudy,160,2012-11-11 19:51:00
2:51 PM,86.0,66.0,51,29.85,10.0,SSE,25.3,33.4,N/A,,Scattered Clouds,160,2012-11-11 20:51:00
3:51 PM,84.9,66.0,53,29.86,10.0,SSE,25.3,-,N/A,,Partly Cloudy,150,2012-11-11 21:51:00
4:51 PM,82.9,66.0,56,29.88,10.0,SSE,24.2,32.2,N/A,,Partly Cloudy,150,2012-11-11 22:51:00
5:51 PM,81.0,66.9,62,29.90,10.0,SSE,20.7,-,N/A,,Clear,150,2012-11-11 23:51:00
6:51 PM,80.1,66.9,64,29.93,10.0,SSE,18.4,-,N/A,,Scattered Clouds,150,2012-11-12 00:51:00
7:51 PM,80.1,68.0,67,29.96,10.0,SSE,13.8,-,N/A,,Scattered Clouds,160,2012-11-12 01:51:00
8:51 PM,79.0,68.0,69,29.99,10.0,SSE,11.5,-,N/A,,Partly Cloudy,160,2012-11-12 02:51:00
9:51 PM,77.0,69.1,76,30.02,10.0,SSE,8.1,-,N/A,,Clear,160,2012-11-12 03:51:00
10:51 PM,75.0,66.9,76,30.05,10.0,SSE,5.8,-,N/A,,Partly Cloudy,160,2012-11-12 04:51:00
11:51 PM,73.0,66.9,81,30.07,10.0,Calm,Calm,-,N/A,,Partly Cloudy,0,2012-11-12 05:51:00